Location: Gwatt
(46.7204°N, 7.6223°E)
Time: 16:13:51
(UTC+00:00)

Cosmos 1844 - Pass Details

Date: 18 September 2020
Orbit: 824 x 866 km, 70.9° (Epoch: 29 October)

Event Time Altitude Azimuth Distance (km) Brightness Sun altitude
Rises 19:25:45 0° 189° (S) 3,413 6.7 -19.3°
Reaches altitude 10° 19:28:15 10° 184° (S) 2,475 5.9 -19.7°
Maximum altitude 19:33:44 51° 110° (ESE) 1,055 3.8 -20.5°
Drops below altitude 10° 19:39:11 10° 36° (NE) 2,464 6.0 -21.4°
Sets 19:41:40 0° 31° (NNE) 3,396 6.8 -21.7°
